Location: S�tio Afonso Gruber
(26.1760°S, 49.5250°W)
Time: 08:37:55
(UTC+00:00)

M-CUBED/EXP-1 PRIME - Pass Details

Date: 01 December 2022
Orbit: 415 x 605 km, 101.7° (Epoch: 05 February)

Event Time Altitude Azimuth Distance (km) Brightness Sun altitude
Rises 21:14:47 0° 67° (ENE) 2,599 ? 7.9°
Enters shadow 22:17:10 -65° 12° (NNE) 12,228 ? -4.9°
Maximum altitude 22:52:12 38° 285° (WNW) 761 ? -11.7°
